COSMOS 2491 DEB, 44998

Orbit data source: Space-Track

COSMOS 2491 DEB, 44998 is space debris in LEO originally from a launch on Wed, 25 Dec 2013 UTC launched from the Plesetsk Missile And Space Complex (PKMTR). Debris objects in space refer to the collection of defunct objects orbiting the Earth. Examples of debris include non-operational satellites, rocket bodies, and fragments generated from explosions, collisions, or faulty payload assembly.

Loading next visibility...
Identifier
44998, 2013-076S
Orbit
LEO
Country
Flag of CISCIS
Related business
Manufacturer
TsNIIKhM
Mission
Spacecraft
Bus & Motor
Unknown
Mass
Unknown
Launch date (UTC)
2013-12-25 (13 years ago)
Launch vehicle
Unknown
Launch site
Plesetsk Missile And Space Complex (PKMTR)
Object type
Payload
Rocket body
Debris
Shape & HBR
Unknown shape, 0.1 m
Radar Cross Section
Small (<0.1 m²)

Expand to show TLE details & history
Last TLE update: 1 week ago

TLE from 1 week ago
0 COSMOS 2491 DEB
1 44998U 13076S   26246.81596739  .00001201  00000-0  60799-2 0  9996
2 44998  82.4691  59.4163 0091548 326.3818  33.1488 12.67872650307250
Epoch: 2026-09-03T19:34Z
TLE epoch observation values (Epoch: 2026-09-03T19:34:59.582Z)
Latitude
-0.00002°
Longitude
142.71932°
Altitude
1,333.993 km
Speed
7.218 km/s
True Right ascension
03h 57m 39s
True Declination
0° 00' 00"
Sunlit
Object was in daylight at epoch
Visualization orbit readout
Latitude
Unknown
Longitude
Unknown
Altitude
Unknown
Speed
Unknown
Apparent Right ascension
Unknown
Apparent Declination
Unknown
Sunlit
N/A
Visualization observer readout
Local Sidereal Time
00:55:41
Azimuth
Unknown
Elevation
Unknown
Doppler factor
Unknown
Orbital elements
Apogee altitude
1,459.031 km
Perigee altitude
1,316.838 km
Semi-major axis
7,766.072 km
Eccentricity
0.00915
Inclination
82.4691°
RAAN
59.4163°
Arg. of periapsis
326.3818°
True anomaly
33.72798°
Mean anomaly
33.1488°
Eccentric anomaly
33.43783°
Mean motion
3.17133 °/min
Orbital period
113.52 mins
BSTAR
0.0060799
Loading maneuver chart data...
Computing Atmospheric mass density...
Loading historical data...
Loading historical data...
Loading historical data...
Loading historical data...
Loading historical data...
Loading historical data...
Loading historical data...

Documentation

Showing up to 5 results
|